Regional Weather Roundup
Issued by NWS Grand Forks, ND

Home | Current Version | Previous Version | Graphics & Text | Print | Product List | Glossary On
Versions: 1 2 3 4 5 6 7 8 9 10 11 12 13 14 15 16 17 18 19 20 21 22 23 24 25 26 27 28 29 30 31 32 33 34 35 36 37 38 39 40 41 42 43 44 45 46 47 48 49 50
000
ASUS43 KFGF 010010
RWRFGF
PRAIRIE TO PINES  WEATHER ROUNDUP
NATIONAL WEATHER SERVICE EASTERN NORTH DAKOTA/GRAND FORKS ND
700 PM CDT THU JUL 31 2014

 **SATELLITE DATA USED TO AUGMENT SKY COVER AT AUTOMATED STATIONS**
 *****  WEATHER ACROSS EASTERN NORTH DAKOTA  *****

CITY           SKY/WX    TMP DP  RH WIND       PRES   REMARKS
GRAND FORKS    MOSUNNY   82  62  50 N5        29.98F
6HR MIN TEMP:  79; 6HR MAX TEMP:  84;

GRAND FRKS AFB MOSUNNY   80  61  53 NE3       30.00F
GRAND FRKS NWS   N/A     81 N/A N/A MISG        N/A
DEVILS LAKE    SUNNY     81  55  41 NW6       30.02S
6HR MIN TEMP:  79; 6HR MAX TEMP:  81;

FARGO          SUNNY     82  59  45 NE6       29.99F
WAHPETON ARPT  CLEAR     79  54  41 NE5       30.01S
$$

 ***** WEATHER ACROSS CENTRAL AND WESTERN NORTH DAKOTA  *****

CITY           SKY/WX    TMP DP  RH WIND       PRES   REMARKS
BISMARCK       SUNNY     85  49  28 SE7       30.03F
6HR MIN TEMP:  82; 6HR MAX TEMP:  88;

MINOT          SUNNY     81  53  37 VRB3      30.03F
6HR MIN TEMP:  78; 6HR MAX TEMP:  82;

JAMESTOWN      SUNNY     80  58  46 NE3       30.03F
6HR MIN TEMP:  78; 6HR MAX TEMP:  83;

MINOT AFB      MOSUNNY   80  56  43 S5        30.03F
GARRISON         N/A     81  57  43 E5        30.04F
WILLISTON      SUNNY     87  56  34 E15       29.99F
6HR MIN TEMP:  77; 6HR MAX TEMP:  90; 6HR PCP:  0.02;

DICKINSON      SUNNY     84  58  40 E8        30.03F
6HR MIN TEMP:  80; 6HR MAX TEMP:  88;

HETTINGER      SUNNY     86  52  30 NE8       30.06F
6HR MIN TEMP:  79; 6HR MAX TEMP:  89;

$$

 *****  OTHER AIRPORT OBSERVATIONS IN OUR AREA  *****

CITY           SKY/WX    TMP DP  RH WIND       PRES   REMARKS
WALHALLA       FAIR      77  64  65 N7          N/A
GRAFTON AIRPOR FAIR      81  61  50 N6        29.99S
VALLEY CITY AR FAIR      81  55  41 NW8       30.03F
CANDO          FAIR      81  57  44 N5        30.04S
CAVALIER APRT  FAIR      81  63  54 NE6       30.00S
GWINNER        CLEAR     81  57  44 NW5       30.04F
SHEYENNE NWR     N/A     81  56  42 NW3       29.95S
ROLLA            N/A     77  57  50 N7        30.06F
 ***** THE ABOVE OBSERVATIONS ARE NON NWS ARE NOT QUALITY
       CONTROLLED AND MAY MIS-REPORT RAIN FOR SNOW...
$$

  *****  WEATHER ACROSS NORTHERN MINNESOTA  *****

CITY           SKY/WX    TMP DP  RH WIND       PRES   REMARKS
FLAG ISLAND    MOSUNNY   73  63  68 S5        29.97S
WARROAD        SUNNY     79  61  53 W3        29.99F
ROSEAU           N/A     77  59  53 NW9       29.99S
HALLOCK        SUNNY     79  61  53 N9        29.99S
THF RVR FALLS  PTSUNNY   79  59  50 NW7       30.00F
6HR MIN TEMP:  77; 6HR MAX TEMP:  79;

BAUDETTE       SUNNY     76  58  53 CALM      30.00F
6HR MIN TEMP:  75; 6HR MAX TEMP:  78;

WASKISH        SUNNY     77  57  50 CALM      30.00S
CROOKSTON      SUNNY     79  64  61 NW3       30.00F
$$
  *****  WEATHER ACROSS CENTRAL AND WEST MINNESOTA  *****

CITY           SKY/WX    TMP DP  RH WIND       PRES   REMARKS
FOSSTON        SUNNY     77  61  57 NW6       30.02S
BEMIDJI        SUNNY     76  57  52 NW5       30.01F
PARK RAPIDS    SUNNY     77  57  50 NW12      30.01S
6HR MIN TEMP:  77; 6HR MAX TEMP:  82;

ELBOW LAKE     FAIR      77  60  56 CALM      30.01F
6HR MIN TEMP:  75; 6HR MAX TEMP:  79;

WADENA         SUNNY     75  59  57 NW7       30.01S
DETROIT LAKES  SUNNY     77  55  47 NW7       30.03F
MOORHEAD       SUNNY     81  61  50 NE5       30.01S
FERGUS FALLS   SUNNY     79  54  41 N5        30.00F
MORRIS MN      SUNNY     79  61  53 W3        30.01F
STAPLES        SUNNY     77  57  50 W8        30.01S
$$
  *****  WEATHER ELSEWHERE ACROSS MINNESOTA  *****

CITY           SKY/WX    TMP DP  RH WIND       PRES   REMARKS
DULUTH         SUNNY     77  56  48 NW5       29.97S
6HR MIN TEMP:  77; 6HR MAX TEMP:  80;

INTRNTL FALLS  SUNNY     74  55  51 N8        29.98F
6HR MIN TEMP:  74; 6HR MAX TEMP:  78;

ELY            SUNNY     72  48  43 NW6       29.99S
CLOQUET        MOSUNNY   75  54  46 NW5       29.98S
WHEATON        SUNNY     77  59  53 CALM      30.03F
BRAINERD       SUNNY     76  59  55 W6        29.99F
6HR MIN TEMP:  76; 6HR MAX TEMP:  81;

HIBBING        SUNNY     76  56  49 N7        29.98F
6HR MIN TEMP:  76; 6HR MAX TEMP:  80;

ALEXANDRIA     SUNNY     78  58  49 NW8       30.04S
6HR MIN TEMP:  77; 6HR MAX TEMP:  80;

SAINT CLOUD    SUNNY     83  55  38 W8        29.99F
6HR MIN TEMP:  81; 6HR MAX TEMP:  86;

MINNEAPOLIS    MOSUNNY   80  55  42 NW8       29.99S
6HR MIN TEMP:  80; 6HR MAX TEMP:  84;

$$

  *****  WEATHER ACROSS SOUTH DAKOTA  *****

CITY           SKY/WX    TMP DP  RH WIND       PRES   REMARKS
SIOUX FALLS    MOSUNNY   72  62  71 W5        30.04F
6HR MIN TEMP:  70; 6HR MAX TEMP:  80; 6HR PCP: TRACE;

BROOKINGS      NOT AVBL
WATERTOWN      SUNNY     77  54  44 N8        30.04F
6HR MIN TEMP:  75; 6HR MAX TEMP:  81;

HURON          SUNNY     81  52  36 N7        30.02F
6HR MIN TEMP:  79; 6HR MAX TEMP:  84;

SISSETON         N/A     81  60  48 CALM      30.01F
ABERDEEN       SUNNY     78  55  44 E7        30.03F
6HR MIN TEMP:  78; 6HR MAX TEMP:  82;

MITCHELL       SUNNY     82  60  47 CALM      30.03F
PIERRE         SUNNY     86  53  32 NW8       30.01F
6HR MIN TEMP:  80; 6HR MAX TEMP:  88;

MOBRIDGE       SUNNY     84  52  33 NE7       30.01F
RAPID CITY     PTSUNNY   83  53  35 SW10      30.10F
6HR MIN TEMP:  80; 6HR MAX TEMP:  88;

$$

  *****  SOME WEATHER IN NEARBY STATES *****

CITY           SKY/WX    TMP DP  RH WIND       PRES   REMARKS
GLASGOW MT     MOSUNNY   95  39  14 E7        29.95S HX  91
6HR MIN TEMP:  91; 6HR MAX TEMP:  99;

GREAT FALLS MT PTSUNNY   87  34  15 CALM      30.11F
6HR MIN TEMP:  73; 6HR MAX TEMP:  95; 6HR PCP: TRACE;

CHEYENNE WY    SUNNY     74  44  34 SE6       30.27F
6HR MIN TEMP:  70; 6HR MAX TEMP:  77;

SCOTTSBLUFF NE SUNNY     85  43  22 SE7       30.15S
6HR MIN TEMP:  80; 6HR MAX TEMP:  87;

OMAHA NE       PTSUNNY   81  58  45 SE9       30.01F
6HR MIN TEMP:  79; 6HR MAX TEMP:  86;

DES MOINES IA  CLOUDY    71  64  78 NW8       30.04S
6HR MIN TEMP:  71; 6HR MAX TEMP:  84; 6HR PCP:  0.02;

DAVENPORT IA   SUNNY     77  63  61 W5        30.04F
6HR MIN TEMP:  77; 6HR MAX TEMP:  81;

CHICAGO IL     MOSUNNY   80  55  42 W12       30.01S
6HR MIN TEMP:  80; 6HR MAX TEMP:  84;

EAU CLAIRE WI  PTSUNNY   76  58  53 W5        29.98S
6HR MIN TEMP:  76; 6HR MAX TEMP:  82;

LA CROSSE WI   MOSUNNY   80  58  46 NW3       29.99S
6HR MIN TEMP:  80; 6HR MAX TEMP:  83;

$$

  *****  SOME NATIONAL WEATHER *****

CITY           SKY/WX    TMP DP  RH WIND       PRES   REMARKS
LA GUARDIA NY  MOCLDY    77  65  66 S13G22    30.10R
6HR MIN TEMP:  77; 6HR MAX TEMP:  82;

RALEIGH NC     CLOUDY    76  68  76 CALM      30.13S
6HR MIN TEMP:  76; 6HR MAX TEMP:  82;

ATLANTA GA     CLOUDY    72  68  87 NE14      30.07R
6HR MIN TEMP:  72; 6HR MAX TEMP:  85; 6HR PCP:  0.10;

NEW ORLEANS LA PTSUNNY   83  61  47 N7        29.99S
6HR MIN TEMP:  83; 6HR MAX TEMP:  91;

OKLAHOMA CITY  PTSUNNY   75  66  73 E9        30.05S
6HR MIN TEMP:  73; 6HR MAX TEMP:  80; 6HR PCP: TRACE;

ALBUQUERQUE NM CLOUDY    80  58  46 W10       30.18S
6HR MIN TEMP:  74; 6HR MAX TEMP:  82;

SALT LAKE CITY CLOUDY    82  52  35 W14       30.10F
6HR MIN TEMP:  79; 6HR MAX TEMP:  85;

LOS ANGELES CA MOSUNNY   73  61  65 W17       29.87F
6HR MIN TEMP:  73; 6HR MAX TEMP:  77;



USA.gov is the U.S. government's official web portal to all federal, state and local government web resources and services.